Weather History for Ft. Stewart, GA

Change the Weather History Date:

Friday, November 30, 2012

  Actual Average Record
Temperature  
Mean Temperature 58 °F -  
Max Temperature 71 °F 66 °F 81 °F (1967)
Min Temperature 46 °F 45 °F 26 °F (1979)
Degree Days  
Heating Degree Days 6    
Growing Degree Days 8 (Base 50)    
Moisture  
Dew Point 50 °F    
Average Humidity 79    
Maximum Humidity 100    
Minimum Humidity 49    
Precipitation  
Precipitation 0.00 in - - ()
Sea Level Pressure  
Sea Level Pressure 30.32 in    
Wind  
Wind Speed 4 mph (ENE)    
Max Wind Speed 10 mph    
Max Gust Speed -    
Visibility 10 miles    
Events      
Averages and records for this station are not official NWS values.
T = Trace of Precipitation, MM = Missing Value Source: NWS Daily Summary

Daily Weather History Graph

Daily Weather History Graph

Search for Another Location

Airport:

Trip Planner

Search our weather history database for the weather conditions in past years. The results will help you decide how hot, cold, wet, or windy it might be!

Date:

Astronomy

Nov. 30, 2012 Rise Set
Actual Time 7:08 AM EST 5:21 PM EST
Civil Twilight 6:41 AM EST 5:48 PM EST
Nautical Twilight 6:11 AM EST 6:18 PM EST
Astronomical Twilight 5:42 AM EST 6:48 PM EST
Moon 7:14 PM EST (11/30) 8:39 AM EST (11/30)
Length of Visible Light 11h 06m
Length of Day
10h 13m
Waning Gibbous, 96% of the Moon is Illuminated
Nov 30
Waning Gibbous
Dec 6
Last Quarter
Dec 13
New
Dec 20
First Quarter
Dec 28
Full

Hourly Weather History & Observations

Time (EST) Temp. Windchill Dew Point Humidity Pressure Visibility Wind Dir Wind Speed Gust Speed Precip Events Conditions
12:55 AM 50.4 °F - 44.4 °F 80% 30.35 in 10.0 mi NNE 3.5 mph - N/A   Mostly Cloudy
1:55 AM 51.3 °F - 45.7 °F 81% 30.34 in 10.0 mi NNE 4.6 mph - N/A   Overcast
2:55 AM 51.4 °F - 46.4 °F 83% 30.34 in 10.0 mi NW 3.5 mph - N/A   Overcast
3:55 AM 49.6 °F - 46.0 °F 87% 30.33 in 10.0 mi Calm Calm - N/A   Partly Cloudy
4:55 AM 46.2 °F 45.0 °F 44.4 °F 93% 30.33 in 10.0 mi NNW 3.5 mph - N/A   Clear
5:55 AM 46.6 °F - 44.4 °F 92% 30.34 in 10.0 mi Calm Calm - N/A   Partly Cloudy
6:55 AM 47.7 °F - 44.8 °F 90% 30.36 in 10.0 mi Calm Calm - N/A   Scattered Clouds
7:55 AM 48.9 °F - 45.5 °F 88% 30.36 in 10.0 mi Calm Calm - N/A   Clear
8:55 AM 55.0 °F - 48.0 °F 77% 30.36 in 10.0 mi NE 5.8 mph - N/A   Clear
9:55 AM 59.5 °F - 49.6 °F 70% 30.38 in 10.0 mi NNE 4.6 mph - N/A   Clear
10:55 AM 65.5 °F - 52.3 °F 62% 30.37 in 10.0 mi ENE 4.6 mph - N/A   Clear
11:55 AM 69.4 °F - 53.4 °F 57% 30.34 in 10.0 mi East 9.2 mph - N/A   Clear
12:55 PM 70.3 °F - 50.2 °F 49% 30.30 in 10.0 mi East 9.2 mph - N/A   Scattered Clouds
1:55 PM 71.1 °F - 53.1 °F 53% 30.28 in 10.0 mi East 9.2 mph - N/A   Overcast
2:55 PM 71.1 °F - 52.3 °F 52% 30.27 in 10.0 mi ESE 10.4 mph - N/A   Overcast
3:55 PM 69.3 °F - 54.1 °F 59% 30.28 in 10.0 mi East 6.9 mph - N/A   Overcast
4:55 PM 65.8 °F - 54.5 °F 67% 30.29 in 10.0 mi East 6.9 mph - N/A   Mostly Cloudy
5:55 PM 61.9 °F - 54.3 °F 76% 30.29 in 10.0 mi East 4.6 mph - N/A   Mostly Cloudy
6:55 PM 58.6 °F - 53.2 °F 82% 30.29 in 10.0 mi East 3.5 mph - N/A   Clear
7:55 PM 53.8 °F - 52.7 °F 96% 30.30 in 10.0 mi Calm Calm - N/A   Clear
8:55 PM 54.0 °F - 52.2 °F 94% 30.30 in 10.0 mi Calm Calm - N/A   Clear
9:55 PM 50.7 °F - 50.4 °F 99% 30.30 in 7.0 mi Calm Calm - N/A   Clear
10:55 PM 48.7 °F - 48.7 °F 100% 30.31 in 10.0 mi Calm Calm - N/A   Clear
11:55 PM 51.8 °F - 51.6 °F 99% 30.30 in 10.0 mi Calm Calm - N/A   Overcast